Location: Unspecified
(0.0000°N, 0.0000°E)
Time: 08:27:07
(UTC+00:00)

ISS - Pass Details

Date: 18 May 2021
Orbit: 417 x 422 km, 51.6° (Epoch: 16 June)

Event Time Altitude Azimuth Distance (km) Brightness Sun altitude
Rises 04:15:24 0° 346° (NNW) 2,353 0.1 -23.7°
Reaches altitude 10° 04:17:49 10° 3° (N) 1,493 -0.7 -23.1°
Maximum altitude 04:20:26 21° 54° (NE) 995 -1.1 -22.5°
Drops below altitude 10° 04:23:04 10° 106° (ESE) 1,499 -0.3 -21.9°
Sets 04:25:30 0° 122° (ESE) 2,365 0.6 -21.4°
